星链-1039 (STARLINK-1039 )

导读

STARLINK-1039是美国SpaceX公司星链星座中的一员,于2019年11月11日发射升空。星链计划是全球规模最大的低轨卫星互联网项目,旨在为全球提供高速低延迟宽带服务。该卫星运行在近地轨道,属于星链第一代卫星,支撑星座初期组网,助力实现全球范围互联网覆盖,尤其服务偏远地区及特殊场景联网需求,推动了卫星互联网商业化发展。

基本信息
目录编号:
44744
目录名称:
STARLINK-1039
国际标识:
2019-074AH
轨道中心:
EARTH
卫星名称:
星链-1039
卫星全名:
星链-1039 (STARLINK-1039 )
卫星状态:
在轨 (已飞行2489 天)
发射日期:
2019-11-11 UTC
国别 :
美国 (US)
星等 :
--
轨道信息
数据来源 国际轨道数据
星历时间: 2026-09-02T05:57:58+0800
2天前
查看轨道信息
半长轴: 6841.459km
偏心率: 0.0002524
轨道倾角: 53.057°
近地点辐角 70.229°
升交点赤经 116.921°
平近点角 289.899°
近地点: 461.595km
远地点: 465.049km
周期: 93.860分钟
每日圈数: 15.34192
详细信息
固有亮度:
5
最大亮度:
2.5
卫星平台:
Starlink V1.0
覆盖范围:
全球
运营商:
太空探索技术公司
运营商所在国:
美国
制造商(研发单位):
太空探索技术公司
制造商所在国:
美国
使用方式:
暂无
卫星简介
星链(Starlink)计划是由太空探索技术公司(SpaceX)提出的一个巨型低轨卫星互联网星座项目,计划在2019年至2024年间在太空搭建由约1.2万颗卫星组成的“星链”网络,其中1584颗将部署在地球上空550千米处的近地轨道,并从2020年开始工作。该卫星仍在工作。
2D轨道图
3D轨道图
轨道高度分析图
轨道倾角分析图
轨道综合分析图
查看轨道综合分析图
交会数据列表
事件ID 空间交会对象 最接近时刻(TCA) 交会距离 交会风险概率(CRP) 交会风险指数(CRI) 操作
CDM_260904-143504-474406-564621
2026-09-04T
14:35:34+0000
0.398 km
远距离
2.476225E-4 高风险 0.83
CDM_260904-152904-474405-181121
2026-09-04T
15:29:32+0000
0.554 km
远距离
1.376994E-4 高风险 0.78
CDM_260903-004604-474406-448621
2026-09-03T
00:46:46+0000
0.688 km
远距离
6.636675E-5 中风险 0.71
CDM_260902-232604-474405-371523
2026-09-02T
23:26:39+0000
0.744 km
远距离
3.666063E-5 中风险 0.66
CDM_260905-070804-474406-854221
2026-09-05T
07:08:18+0000
1.044 km
极远距离
1.968427E-5 中风险 0.61
CDM_260904-011804-474406-564621
2026-09-04T
01:18:17+0000
1.042 km
极远距离
1.627015E-5 中风险 0.59
CDM_260904-172904-474404-976221
2026-09-04T
17:29:55+0000
1.211 km
极远距离
7.558906E-6 低风险 0.53
CDM_260905-095404-474404-976221
2026-09-05T
09:54:48+0000
1.220 km
极远距离
7.3785E-6 低风险 0.52
CDM_260904-231104-474406-282821
2026-09-04T
23:11:02+0000
1.369 km
极远距离
6.195144E-6 低风险 0.51
CDM_260904-155604-474404-976221
2026-09-04T
15:56:08+0000
1.337 km
极远距离
5.421375E-6 低风险 0.5